STARLINK-34913 (65369 NORAD) Tracking and Keplerian Element Data

This shows tracking and keplerian element data for the satellite.

Feedback or suggestion? Click here.




ElementValue
Catalog65369
NameSTARLINK-34913
Epoch Orbit1752
Epoch Day353.80370992
Epoch Year2025
RAAN179.2859
Inclination53.1577
Eccentricity5.46E-05
Argument of Perigee296.9848
Mean Anonmoly63.1097
Mean Motion15.30195098
Decay Rate8.596E-05
L11 65369U 25190U 25353.80370992 .00008596 00000+0 30205-3 0 9992
L22 65369 53.1577 179.2859 0000546 296.9848 63.1097 15.30195098 17523



Live tracking and technical data element details for STARLINK-34913 (NORAD 65369). STARLINK-34913 can be tracked NOW for your location showing map with azimuth and elevation plus other details from your city location.







IsCatalogInMostPopularTable: catalog: 65369, numindb: 8
Update: records affected: 1



GetName: 65369 STARLINK-34913

Hit Count: updated at: Mon, 20 Apr 2026 09:25:44 GMT